Theta_e
286 287 287 287 288 289 289 291 292 293 293 294 296 299 300 299 299 300 301 300 299 299 298 297 296 295 294 293 292 291 290 289 286 287 289 289 289 289 289 290 291 290 289
285 286 286 287 287 287 287 288 290 291 292 292 293 295 298 297 298 298 297 297 298 296 296 296 295 295 293 293 292 291 291 290 288 285 286 288 289 291 288 288 291 290 288
285 285 285 285 286 286 285 286 288 290 291 291 291 293 295 295 296 297 297 296 297 296 296 295 294 294 292 292 292 291 291 291 289 287 286 288 289 290 289 287 289 286 287
284 283 283 284 285 285 285 285 286 289 290 289 290 291 293 294 294 295 295 295 296 296 296 295 294 293 292 292 291 291 290 289 288 287 285 285 287 288 287 285 283 284 283
283 282 283 284 284 284 283 284 285 287 288 289 288 289 291 292 293 293 294 294 294 294 294 294 294 292 291 292 291 290 289 288 287 285 284 285 285 284 284 283 282 281 281
282 282 282 282 283 282 282 282 283 285 287 288 287 287 288 291 292 293 293 293 294 293 292 292 292 289 290 291 292 292 291 288 286 285 284 284 284 285 284 282 282 279 275
281 281 281 281 281 280 281 281 281 283 285 286 287 287 286 289 292 292 292 293 292 292 292 291 290 291 290 291 291 291 290 291 290 288 285 285 284 285 284 281 281 280 279
279 279 280 279 277 279 279 279 280 282 283 285 285 286 285 286 290 291 291 292 291 291 290 290 289 289 290 289 289 288 287 288 288 288 287 287 286 285 284 281 280 278 278
276 276 276 276 278 278 276 277 279 281 283 285 286 285 285 285 288 291 289 285 285 286 288 288 287 286 288 290 287 285 285 285 289 290 289 288 287 285 281 280 274 273 275
275 274 275 277 277 274 275 277 279 281 282 284 285 286 285 285 287 287 287 285 285 284 285 286 286 286 288 289 286 285 284 284 285 286 284 283 281 280 280 279 277 271 269
273 273 275 273 272 274 275 277 279 280 281 283 284 286 285 285 285 287 287 285 285 284 284 284 285 288 289 289 288 285 285 285 286 283 280 278 276 273 273 273 272 274 269
272 272 270 270 271 273 274 276 277 277 280 282 283 285 285 285 285 287 288 287 287 285 284 284 285 288 289 289 286 287 288 286 284 282 279 278 277 273 271 270 269 269 269
268 267 268 270 272 273 273 273 274 277 278 279 282 283 285 284 285 287 287 287 287 285 285 286 287 288 288 288 287 288 286 284 283 281 280 279 278 274 271 268 268 267 266
265 266 268 269 270 270 272 273 274 276 276 278 279 280 283 284 284 284 284 285 285 285 285 285 286 287 287 286 286 287 284 284 283 282 281 278 275 273 270 268 267 266 268
265 266 267 268 268 269 270 273 275 275 277 277 278 280 280 283 284 286 285 285 284 285 284 285 284 284 283 283 283 283 283 283 282 281 278 276 275 273 270 270 268 266 273
263 265 265 266 266 268 270 270 274 276 278 279 281 282 283 287 288 287 287 287 287 287 284 283 283 283 282 281 282 281 281 281 281 280 278 277 275 274 274 275 273 270 273
260 261 263 264 265 267 267 267 267 271 276 278 280 282 283 285 288 287 288 288 288 287 283 283 282 282 282 281 281 282 281 281 281 280 278 277 276 275 274 274 274 274 271
256 259 260 263 264 265 266 267 268 267 269 271 276 278 281 285 287 287 287 287 284 285 284 282 282 282 282 281 282 282 281 281 280 280 279 277 275 275 274 273 274 272 263
257 259 260 262 263 264 265 266 267 268 268 270 271 275 278 281 285 288 287 284 284 284 284 283 283 283 282 282 282 283 282 280 280 279 278 276 274 273 273 273 272 267 262
257 258 260 260 261 262 264 265 266 266 267 268 270 271 273 276 279 284 284 284 285 285 285 284 284 284 283 283 283 283 281 279 279 278 276 275 273 273 274 271 269 266 259
257 258 258 259 260 262 264 264 264 265 266 266 266 268 275 274 275 281 284 284 285 285 285 285 285 284 284 283 282 283 281 279 279 278 275 273 272 271 271 269 266 264 262
256 255 257 258 260 261 262 263 263 263 263 262 263 265 271 269 271 275 285 285 285 286 286 285 285 285 284 283 282 283 281 279 278 277 274 273 273 271 270 268 265 264 262
253 255 256 255 257 259 260 260 260 260 260 260 261 262 263 265 266 269 275 285 285 285 285 285 285 284 284 283 283 283 281 279 279 278 274 273 273 271 270 268 265 262 262
252 253 253 253 253 257 258 258 258 258 258 258 259 260 261 262 263 265 268 280 285 285 285 285 285 284 283 283 283 283 282 280 280 277 275 274 273 271 270 268 266 263 263
248 251 251 252 252 253 254 256 256 256 256 257 257 258 259 260 261 263 265 269 283 285 285 285 284 283 282 281 281 280 280 279 278 276 275 274 272 271 270 268 266 264 261
247 248 249 250 251 251 251 253 255 255 255 256 257 257 258 258 259 261 262 266 270 280 284 283 282 281 280 279 279 279 279 277 275 275 275 273 272 270 269 267 265 264 263
Wind_Speed
11 12 14 15 15 14 14 16 18 16 16 16 15 14 9 7 7 9 10 10 13 12 12 13 12 10 5 5 4 3 3 3 4 1 3 3 3 4 2 1 2 0 3
11 9 14 15 15 15 15 16 18 18 15 16 16 14 11 8 8 9 9 9 12 12 11 13 15 11 11 8 6 6 5 4 4 5 3 3 3 5 3 2 1 3 4
10 11 14 13 15 16 16 16 17 19 16 15 15 15 13 9 9 10 11 11 12 12 13 13 13 14 13 10 10 7 6 4 4 4 3 2 2 2 3 1 2 2 2
10 12 12 14 15 15 16 16 16 17 16 15 14 15 13 11 10 10 11 11 12 13 13 13 14 13 14 12 9 10 7 6 6 5 3 3 2 2 3 1 0 2 2
11 12 12 13 14 14 16 17 16 17 16 15 14 14 14 11 8 9 10 12 13 12 12 11 11 12 12 13 9 8 10 7 7 6 4 3 3 3 3 3 2 1 2
11 12 13 14 14 15 17 17 17 16 16 15 14 13 14 9 15 15 13 11 12 13 12 11 11 12 14 15 13 13 11 10 9 6 3 6 4 3 3 3 2 2 2
10 12 13 13 15 16 16 17 17 17 17 18 14 12 12 12 15 15 16 10 10 11 11 11 11 8 12 10 15 16 13 12 11 7 8 5 4 5 5 4 3 2 2
10 12 12 14 15 15 15 16 16 15 16 15 16 13 10 8 14 17 16 10 8 9 10 12 12 11 11 12 12 10 7 6 6 5 5 5 4 5 4 4 4 3 3
8 9 13 13 16 17 17 17 17 16 14 13 14 14 11 9 11 9 7 4 5 7 8 10 10 11 17 19 12 10 8 4 6 10 11 13 12 10 6 4 3 3 2
6 11 12 13 15 16 15 17 16 15 14 12 16 12 11 10 10 11 7 3 6 6 6 9 15 12 20 19 10 10 9 7 8 9 10 11 8 8 8 2 4 3 3
9 11 11 13 13 13 14 14 15 16 15 13 14 12 9 8 6 12 12 5 6 6 6 6 6 19 20 19 13 8 8 9 12 9 7 5 5 4 3 3 3 3 3
9 9 12 12 10 10 13 14 14 14 14 13 12 11 7 7 8 11 13 8 9 6 7 6 7 17 18 18 12 14 15 14 7 7 6 5 5 4 2 3 4 6 4
8 10 11 12 10 10 12 13 13 12 11 11 10 10 9 5 4 10 13 12 11 6 6 10 15 15 16 13 14 17 13 7 7 7 6 4 4 6 5 3 6 6 5
9 10 10 11 11 10 8 9 9 9 11 10 11 11 10 7 4 2 4 6 9 7 13 10 11 10 8 6 8 10 6 6 6 6 6 5 6 6 4 1 3 2 2
9 9 10 9 10 11 8 9 10 10 11 12 11 11 11 11 5 8 8 7 6 7 9 8 8 7 6 5 5 5 5 6 6 4 6 6 6 6 2 2 2 2 2
10 8 8 8 8 8 10 11 14 21 23 24 25 17 11 18 15 14 15 15 15 18 7 8 8 8 8 7 6 6 5 7 5 6 6 7 7 7 7 5 3 3 3
8 11 8 9 8 8 9 10 15 14 21 22 21 24 25 22 18 14 18 18 20 18 5 8 8 9 8 9 8 7 7 6 7 6 6 7 7 6 8 6 5 4 2
7 11 8 7 8 8 8 9 9 10 14 14 18 22 23 23 21 14 17 16 10 12 8 9 9 9 8 8 8 8 7 7 7 7 7 7 7 7 8 8 7 5 3
7 7 7 8 8 9 8 9 9 10 10 11 13 16 15 24 25 16 16 8 8 9 9 9 9 8 8 8 7 7 8 8 8 8 7 7 7 7 7 7 6 6 6
6 10 9 7 7 8 7 8 8 9 10 10 10 11 12 14 11 8 5 8 7 7 8 9 10 9 9 8 8 7 8 8 8 7 7 7 7 7 7 7 6 6 3
6 7 9 7 6 7 7 8 8 8 9 9 10 11 25 13 12 12 5 7 8 7 8 8 9 9 9 8 8 8 9 8 8 7 7 7 7 7 6 6 5 5 6
5 6 6 6 7 7 7 7 8 8 9 10 10 12 25 10 10 13 6 6 8 8 7 9 8 9 10 10 10 9 9 9 9 8 8 8 7 7 7 7 6 6 6
4 6 5 5 5 7 6 6 7 7 8 9 10 10 10 10 11 11 14 6 7 8 8 9 9 8 8 9 10 10 11 11 10 10 10 9 9 8 8 8 8 7 6
4 5 5 5 4 5 6 7 7 8 8 8 9 9 10 11 11 12 12 12 6 7 8 9 9 11 10 9 8 8 8 8 9 10 13 11 10 10 8 8 8 7 8
4 5 5 4 3 4 5 6 6 7 8 8 8 9 10 11 11 12 12 12 6 7 9 9 9 13 14 14 12 12 12 15 12 13 10 11 12 13 10 8 8 8 5
4 5 4 4 4 3 4 5 6 6 8 9 9 9 10 10 11 11 12 13 11 4 6 7 10 14 15 11 12 14 16 15 14 15 11 11 11 8 9 10 11 7 9
Wind_Direction
328 327 329 329 329 327 328 327 328 320 322 318 312 305 268 242 222 214 212 193 197 187 174 184 166 158 161 147 144 139 154 122 125 151 130 152 130 129 117 85 263 358 10
322 317 323 322 325 326 325 325 327 322 317 317 312 303 279 245 225 214 207 200 200 186 188 179 172 165 154 157 160 167 155 146 136 144 126 153 144 152 163 109 73 37 6
316 319 320 320 322 321 322 321 320 322 315 315 313 306 298 255 234 221 214 201 199 193 183 187 183 166 163 172 169 163 150 146 130 135 139 119 112 138 115 60 64 29 333
314 320 315 316 316 316 318 317 317 317 316 311 310 305 294 275 244 228 215 206 203 200 186 185 174 175 168 167 183 156 150 140 110 130 110 112 137 150 110 139 74 27 32
313 315 313 313 310 315 315 315 313 314 315 308 305 303 296 273 256 236 220 208 197 189 183 174 171 168 173 173 157 161 149 147 146 145 140 131 172 134 157 153 178 98 111
309 308 314 316 314 315 314 312 312 312 309 315 304 299 296 281 261 240 223 214 202 190 177 168 161 156 163 158 146 154 153 163 154 150 149 170 155 140 146 142 150 138 171
305 310 315 314 316 314 311 312 311 313 311 314 308 297 288 282 265 250 228 221 201 191 173 163 155 165 154 154 146 139 143 155 158 143 158 170 146 162 146 148 144 150 152
304 311 317 320 314 314 314 310 311 313 313 311 308 297 284 279 278 244 222 208 199 180 163 161 158 159 155 152 139 136 139 138 141 125 140 128 130 135 136 137 135 127 83
306 315 318 317 316 316 311 312 311 313 305 306 305 298 292 277 270 252 161 158 162 159 156 158 155 154 160 151 141 141 141 148 146 133 127 123 122 124 132 123 136 107 146
318 314 310 315 312 306 304 309 308 307 305 307 304 300 284 273 240 225 197 176 168 152 152 159 159 155 161 155 149 153 161 163 151 132 119 102 94 91 87 81 139 131 144
311 305 305 310 303 299 303 309 309 311 307 305 308 303 289 263 250 222 205 189 172 156 152 154 162 159 158 161 158 153 160 144 149 129 121 120 105 84 77 65 68 122 124
307 312 305 304 302 302 303 306 310 307 310 313 311 312 301 268 241 224 207 207 171 158 158 149 151 157 161 164 150 153 161 154 147 141 141 148 143 123 102 91 78 68 54
317 306 304 305 305 309 311 310 314 318 313 313 316 318 313 277 252 227 206 201 178 151 149 142 142 154 162 167 156 169 159 157 157 157 160 157 151 124 123 84 66 66 65
310 308 307 311 316 313 307 305 301 311 315 312 317 317 314 295 245 207 194 189 182 162 145 141 151 140 138 131 159 160 149 158 163 160 148 124 121 128 137 141 101 122 107
313 309 309 311 312 312 305 302 310 299 300 306 306 307 306 300 258 217 194 185 181 170 147 137 139 138 145 149 141 147 149 150 159 139 141 144 135 139 140 157 114 144 169
317 314 311 308 310 307 310 311 303 304 310 309 305 305 301 292 275 240 205 188 176 163 153 147 151 158 164 166 164 162 163 163 156 151 153 150 152 159 159 164 130 143 176
307 306 305 302 303 309 313 313 317 318 312 314 318 317 316 309 299 255 220 195 179 165 159 160 162 173 175 174 176 180 180 169 158 157 156 159 155 162 156 169 173 172 144
285 285 287 295 299 305 304 304 304 308 318 322 322 318 316 314 308 268 228 203 186 183 168 166 172 178 179 175 179 180 171 166 172 167 157 157 155 168 165 176 183 169 150
300 297 299 297 298 297 296 295 300 304 303 304 313 316 322 324 315 282 234 210 201 195 180 172 175 176 178 175 180 182 176 174 174 164 160 154 154 168 172 178 174 154 134
288 289 298 298 299 300 301 303 308 309 307 306 311 314 321 322 317 293 224 206 208 192 192 183 176 169 174 172 178 178 168 162 165 167 157 152 157 174 175 159 166 160 135
297 300 303 294 298 300 306 314 309 308 313 313 309 309 315 317 306 294 247 209 201 193 185 187 175 173 166 169 176 176 174 168 166 164 152 153 164 160 144 138 145 128 127
306 299 296 304 307 311 318 316 317 317 319 316 315 316 326 323 315 317 260 218 205 194 187 183 179 179 173 173 173 178 175 168 164 158 155 156 156 146 141 139 146 132 135
300 297 303 297 301 316 323 325 325 329 324 321 321 324 328 329 320 312 312 229 206 195 182 179 172 171 170 171 177 177 176 177 167 162 155 155 151 157 148 154 151 139 150
309 307 305 301 315 331 331 331 331 333 327 327 330 332 332 327 321 320 314 296 201 189 178 172 168 163 168 167 172 164 165 157 161 158 153 151 153 151 148 147 151 148 146
331 321 318 312 312 328 328 331 337 336 331 333 335 337 334 329 331 327 324 327 275 185 180 171 163 162 166 165 165 153 149 151 155 151 145 145 149 151 150 144 146 137 125
351 342 326 326 329 334 328 332 342 341 338 335 338 343 335 340 333 331 337 338 336 353 155 153 154 152 151 151 153 145 146 146 146 144 142 140 138 143 141 138 138 141 143